RH
12 11 12 6 3 4 6 7 8 13 31 80 98 97 100 100 100 100 100 100 100 85 62 69 75 70 73 41 20 52 49 100 100 96 89 100 98 88 73 48 98 86 97 99 100 89 77 67 72 69 47 60 60 54
12 11 8 3 4 6 8 9 15 59 98 96 100 100 100 100 100 100 83 91 85 48 28 33 46 85 22 19 29 65 98 100 100 100 99 99 100 100 100 74 85 100 100 89 98 90 79 75 72 70 58 52 56 56
12 9 4 5 7 8 9 14 55 98 95 92 95 98 100 100 100 100 100 97 46 26 20 29 55 50 22 17 55 94 100 100 100 100 99 96 100 100 98 72 77 98 99 100 100 99 94 83 74 64 59 48 40 48
10 5 6 7 9 10 13 23 66 96 84 78 61 53 65 79 79 94 100 91 47 22 18 25 20 27 23 39 98 100 100 100 100 100 100 100 100 100 99 96 82 83 72 80 92 91 99 90 85 65 56 86 69 36
6 6 9 10 12 13 16 20 41 65 74 86 97 96 99 98 87 96 99 100 60 32 19 30 18 32 38 74 100 100 100 100 100 100 100 100 100 100 97 97 100 100 93 76 78 94 85 91 99 88 66 86 68 46
5 9 10 12 15 16 18 18 16 23 35 30 47 80 93 100 84 99 90 78 50 20 17 24 46 84 86 100 100 100 100 100 100 100 100 97 99 100 98 85 95 100 100 100 68 79 100 100 100 100 80 69 89 91
8 10 9 14 16 18 20 19 16 21 36 29 28 30 30 36 35 31 38 40 37 20 21 29 97 100 100 100 100 100 100 100 100 100 100 99 86 58 86 100 100 82 100 94 95 100 100 99 100 100 99 82 77 93
11 9 12 15 16 20 22 19 17 26 37 81 90 94 75 43 28 24 21 18 17 16 18 93 100 100 100 100 100 100 100 100 100 100 100 100 100 93 100 100 98 88 100 100 100 98 100 100 100 100 100 100 100 100
11 10 14 15 17 21 23 18 19 58 97 93 100 92 92 57 31 21 19 16 15 20 36 100 100 100 100 100 100 100 100 100 100 100 100 100 100 100 100 100 98 81 78 81 84 91 98 100 100 100 100 100 100 100
11 11 14 15 17 20 23 17 32 66 94 100 92 100 100 100 99 82 75 47 32 41 90 100 100 100 100 100 100 100 100 100 100 100 100 99 100 100 100 100 100 100 100 100 100 100 100 100 100 100 100 100 100 100
12 12 14 16 17 19 23 16 39 57 98 100 100 98 100 100 100 100 100 80 76 99 100 100 100 100 100 100 100 100 100 100 100 100 100 100 100 100 100 100 100 100 100 100 100 100 100 100 100 100 100 100 100 100
13 13 15 17 16 16 22 16 42 82 74 98 98 100 100 99 100 100 100 100 100 100 100 100 100 100 100 100 100 100 100 100 100 100 100 100 100 100 100 100 100 100 100 100 100 100 100 100 100 100 100 100 100 100
15 14 17 18 16 15 21 16 50 90 72 85 94 99 100 99 100 100 99 100 100 100 100 100 100 100 100 100 100 100 100 100 100 100 100 100 100 100 100 100 100 100 100 100 100 100 100 100 100 100 100 100 100 100
19 17 19 19 16 17 20 18 53 90 88 86 92 100 100 100 100 100 99 100 100 100 100 100 100 100 100 100 98 100 100 100 100 100 100 100 100 100 100 100 100 100 100 100 100 100 100 100 100 100 100 100 100 100
22 21 21 21 16 20 20 22 56 73 68 83 99 99 100 99 99 100 99 96 100 100 100 100 100 100 100 100 100 100 100 96 98 100 100 100 100 100 100 100 100 100 100 100 100 100 100 100 100 100 100 100 99 98
26 25 24 23 16 19 21 23 64 72 90 90 92 96 99 100 100 100 100 100 100 100 100 100 100 100 100 100 99 100 99 100 98 100 100 100 100 100 100 100 100 100 100 100 100 100 100 100 100 100 100 100 100 98
32 28 26 26 17 18 20 26 66 77 66 71 78 97 100 100 100 100 100 100 100 100 100 100 100 100 99 100 100 100 100 100 100 100 100 100 100 100 100 100 100 100 100 100 100 100 100 100 99 99 95 89 77 67
39 34 31 30 19 18 21 28 63 69 90 86 80 79 100 99 100 100 100 100 99 100 100 100 96 98 100 98 100 100 100 100 100 100 100 100 100 100 100 100 100 100 100 99 98 92 83 71 57 46 41 42 40 36
43 39 36 32 23 18 21 30 50 62 74 87 80 70 96 100 100 100 100 97 96 94 97 98 95 100 100 100 100 100 100 100 100 100 100 100 100 100 100 99 96 88 74 55 43 35 28 23 21 21 20 17 13 11
52 46 43 37 29 20 23 28 36 64 58 77 94 78 87 100 100 98 97 99 96 97 88 94 100 100 100 100 100 100 100 100 100 100 100 99 96 94 81 58 39 30 27 25 20 17 15 13 12 10 9 9 8 8
64 56 50 44 38 23 26 31 35 47 70 61 80 100 95 100 100 100 100 99 100 100 100 100 100 100 100 100 100 100 100 100 100 98 92 79 55 39 31 30 25 20 18 15 14 12 11 10 11 12 11 11 14 17
71 69 56 52 46 33 27 32 34 35 50 69 76 99 100 100 100 97 100 100 94 100 100 98 98 97 89 80 82 85 86 80 65 46 36 32 29 27 24 20 18 16 14 13 13 12 14 17 16 15 27 44 40 38
85 85 68 63 58 51 31 34 33 30 28 37 91 100 100 100 100 100 100 100 94 99 91 79 87 94 94 82 75 67 60 51 44 34 28 22 19 18 16 16 15 15 16 16 18 17 18 18 31 61 58 60 68 71
95 95 81 75 73 68 53 33 39 40 36 30 26 77 100 100 100 100 100 100 100 100 100 100 100 100 99 92 82 72 57 39 32 28 24 21 20 16 16 17 19 20 20 19 17 17 34 64 71 72 83 89 97 100
99 94 94 87 85 80 68 42 39 49 47 40 32 27 80 100 100 100 100 100 100 100 100 100 100 100 93 82 71 52 40 35 29 26 25 24 22 22 22 23 22 20 17 17 44 74 74 76 85 95 100 100 100 99
100 92 98 96 96 91 78 58 45 64 64 56 51 43 51 100 100 100 100 100 100 100 100 100 100 98 87 72 58 49 44 38 34 32 28 24 22 20 19 17 19 32 49 69 80 84 88 96 99 100 100 100 98 60
100 96 100 100 100 98 89 70 48 74 77 90 100 100 100 100 100 100 100 100 100 100 100 100 98 92 81 66 58 57 52 44 38 31 25 25 31 47 58 79 88 89 94 94 92 97 100 100 100 100 100 97 48 25
100 100 100 100 100 99 94 76 52 70 84 95 100 93 97 98 98 99 97 95 96 96 95 93 93 91 89 83 74 68 54 40 34 45 71 81 88 96 100 100 100 100 100 100 100 100 100 100 100 100 99 51 22 18
98 100 100 100 100 100 97 76 58 55 82 83 85 82 74 67 69 80 90 98 99 97 96 96 91 85 76 67 53 47 56 76 87 88 91 96 97 100 100 100 100 99 100 100 100 100 100 100 100 100 67 23 16 15
95 100 100 100 100 100 100 69 53 48 74 88 95 88 78 86 92 96 99 97 95 90 84 80 78 78 82 80 82 96 99 97 100 100 100 100 100 100 100 100 100 100 100 100 100 100 100 100 100 96 41 17 15 17
92 100 100 100 100 100 100 63 44 60 91 93 87 88 75 77 89 94 98 96 97 100 100 97 98 98 99 100 100 100 100 100 100 100 100 100 100 100 100 100 100 100 100 100 100 100 100 100 100 88 43 16 15 18
96 99 99 100 100 100 90 55 46 71 83 80 77 86 95 85 70 73 84 86 98 98 96 97 100 100 100 100 100 100 100 100 100 100 100 99 100 100 100 100 100 100 100 100 100 100 100 100 100 97 63 22 14 17
66 71 88 100 100 100 64 44 46 68 74 89 95 100 100 99 90 74 78 87 94 100 100 100 100 100 100 100 100 100 100 92 70 58 52 50 49 50 55 67 81 98 100 100 100 100 100 100 100 100 92 51 19 15
Wind_Speed
76 82 87 87 81 72 67 60 57 51 41 31 26 25 26 26 27 23 18 23 29 35 33 32 31 27 27 20 16 8 23 24 17 29 26 22 24 23 27 36 53 59 52 58 50 46 47 42 42 41 35 36 37 32
80 85 86 83 74 67 62 58 52 39 30 27 25 25 26 29 28 24 23 28 31 34 29 25 18 22 20 16 8 24 22 20 16 25 25 22 33 25 30 35 54 62 40 51 56 47 44 39 36 33 33 32 32 36
83 84 81 74 66 63 59 52 41 34 31 30 29 29 29 30 27 22 21 22 27 29 24 14 16 19 20 9 17 26 10 11 10 26 23 29 29 27 30 26 36 57 51 45 53 43 34 30 29 27 29 23 20 26
82 80 72 66 62 60 54 47 38 35 34 32 31 31 32 31 27 21 21 21 25 25 16 8 10 15 10 7 20 11 7 9 11 22 19 28 35 26 31 31 31 38 35 47 43 51 40 37 30 25 25 26 23 21
77 71 66 62 60 58 53 47 38 33 32 30 25 26 23 22 21 21 21 21 23 21 5 5 13 11 2 12 12 9 7 8 9 22 17 28 20 32 25 23 35 32 32 35 49 34 36 36 36 29 25 28 24 24
72 67 64 60 58 57 54 47 40 35 32 32 31 29 25 23 23 23 21 21 19 19 5 5 4 1 10 15 10 5 5 7 11 18 25 22 28 28 21 17 20 23 25 29 39 33 31 34 38 38 31 28 29 29
67 65 61 56 58 57 53 48 42 36 36 37 36 34 32 32 32 26 20 16 17 14 2 5 10 12 14 12 9 7 7 10 13 20 22 31 35 32 18 17 22 23 24 29 35 35 26 31 37 37 37 37 34 34
63 61 55 57 58 57 53 48 42 35 37 37 30 27 24 20 17 14 14 11 14 10 5 16 15 14 14 13 12 9 9 11 11 17 26 21 36 28 24 22 23 20 20 24 31 32 32 25 23 24 25 25 26 28
60 56 54 57 58 55 49 46 36 32 29 32 30 19 12 9 3 2 6 9 8 7 12 19 17 16 14 15 13 11 11 11 12 12 19 24 24 27 23 21 28 21 21 20 25 22 22 27 25 27 34 34 34 30
58 54 54 58 58 53 46 41 30 26 26 22 17 15 12 13 16 15 13 12 11 10 16 19 19 15 15 17 14 15 13 12 15 14 16 19 24 29 31 28 22 27 28 28 27 28 29 34 30 27 27 29 28 27
56 55 54 58 57 52 43 37 26 22 16 11 15 13 13 11 13 11 11 10 11 13 17 19 17 17 15 17 17 16 14 15 17 18 16 17 20 22 27 31 29 31 30 27 23 21 24 24 24 24 23 26 28 30
54 54 53 57 56 50 40 34 20 21 9 12 11 12 10 7 9 9 8 10 10 11 16 18 17 16 15 19 19 17 15 15 17 20 19 18 19 21 22 22 23 25 26 25 25 24 23 24 25 26 28 28 29 31
53 53 52 55 54 47 36 30 15 20 12 11 13 11 8 8 6 7 8 8 11 15 17 18 16 17 18 20 20 19 17 16 16 17 17 19 22 22 22 23 23 21 17 16 15 17 20 21 23 25 26 27 28 29
51 52 52 53 52 42 34 25 12 15 8 10 16 12 10 9 8 7 6 9 14 14 16 17 15 17 21 22 21 20 18 16 17 17 15 19 23 25 24 22 19 17 18 20 19 20 21 21 21 23 25 26 27 27
51 50 50 51 49 36 31 21 10 13 6 14 13 11 9 8 8 8 10 14 12 14 16 15 15 16 20 22 21 21 19 21 20 17 16 18 19 20 20 19 20 20 19 18 18 18 18 18 19 20 22 24 24 25
49 48 46 48 47 34 26 21 7 12 15 12 14 14 10 10 7 8 11 12 13 15 15 15 16 15 18 20 20 20 19 22 22 19 17 19 19 19 18 18 18 17 16 15 15 15 16 17 18 20 21 22 24 25
49 46 45 46 45 33 24 18 7 8 10 9 9 13 7 8 7 9 12 11 12 15 14 15 16 16 16 18 18 18 16 18 20 19 19 19 19 17 17 16 15 15 15 16 17 18 17 15 14 15 17 20 23 27
46 43 42 42 41 30 21 15 10 6 9 11 9 9 9 7 5 7 10 11 12 13 14 15 17 17 18 20 20 21 21 24 23 21 19 18 18 18 17 17 16 14 12 9 7 7 10 12 16 19 24 28 32 35
44 39 40 40 39 29 20 14 11 5 6 11 11 7 8 8 5 9 12 15 16 15 15 15 17 16 17 20 24 26 26 25 23 21 21 20 19 16 14 10 5 2 1 5 9 13 18 23 27 31 35 39 42 43
41 38 38 37 36 26 17 13 12 7 3 8 12 9 8 8 6 9 12 14 16 15 18 20 20 23 25 29 31 29 27 27 26 23 19 15 11 8 6 2 2 5 9 14 18 22 27 31 35 39 40 40 39 39
38 36 34 34 34 26 14 12 11 9 5 4 8 11 10 12 16 17 17 19 18 21 22 24 26 29 30 31 29 26 23 20 17 14 12 8 5 3 2 6 11 15 19 23 26 30 33 38 35 34 35 33 34 34
35 34 31 31 31 28 11 7 8 10 6 5 5 8 13 17 19 21 23 12 10 15 19 23 25 26 26 25 23 21 18 15 11 8 4 2 4 7 11 15 20 22 25 26 30 32 32 31 31 29 27 28 32 31
32 30 28 28 27 26 18 5 2 3 7 7 4 7 8 15 16 16 14 16 17 16 21 24 24 23 22 21 17 14 11 7 4 4 6 9 13 16 19 21 23 24 25 27 29 29 26 23 23 22 26 25 20 13
29 26 25 25 25 23 21 12 7 6 5 4 2 5 9 11 13 15 12 11 14 17 20 21 20 18 16 13 10 6 2 2 6 8 11 14 17 19 21 24 25 26 27 26 25 20 16 16 17 18 15 10 7 5
24 25 21 22 23 22 19 16 7 5 8 9 7 5 11 11 14 16 15 16 17 18 19 18 17 15 12 9 5 3 4 6 8 11 14 16 19 21 23 24 26 26 24 17 10 10 11 11 10 9 6 6 6 6
21 20 18 20 22 19 18 14 6 5 4 4 6 12 15 15 15 15 16 16 15 14 13 13 10 9 8 8 8 8 9 9 11 12 16 20 22 23 24 23 19 13 12 9 7 7 9 8 7 6 7 7 5 3
18 16 16 17 19 17 16 12 5 3 4 3 5 9 12 13 13 14 15 15 15 15 14 14 13 13 12 11 10 9 10 12 14 18 20 19 16 15 15 11 8 7 6 6 6 7 7 5 5 6 6 3 4 8
17 15 14 15 17 15 14 9 3 2 1 3 5 7 10 10 12 11 10 10 11 11 12 11 10 9 8 9 9 11 14 16 15 12 10 10 10 9 9 7 6 4 4 6 7 6 5 4 4 5 3 5 10 13
13 10 12 14 15 13 12 8 3 6 4 4 4 4 7 9 10 11 11 11 11 11 11 11 11 11 11 11 13 11 8 8 7 6 5 6 6 8 7 5 4 4 5 6 5 4 3 3 3 3 4 10 13 14
12 13 13 12 13 11 11 7 3 8 6 4 4 6 7 9 9 9 9 9 9 9 9 9 8 7 6 6 5 4 3 3 4 4 4 5 6 6 6 5 5 5 6 4 3 3 2 2 2 2 7 12 14 14
11 8 12 12 12 10 10 5 7 9 6 4 4 6 8 11 11 10 8 8 7 5 5 5 5 5 5 4 3 3 3 4 3 2 3 4 5 6 6 6 6 5 5 3 3 3 2 2 2 4 9 13 15 15
16 15 13 10 10 9 8 1 12 12 8 5 3 5 8 10 10 10 8 9 6 5 5 5 5 5 4 4 6 6 4 3 1 2 4 6 5 5 5 6 6 5 4 4 4 4 3 2 2 4 8 12 15 16
12 10 9 8 7 7 5 4 16 15 10 7 6 7 7 6 7 8 8 6 5 6 6 6 6 5 5 6 5 4 3 3 4 5 6 8 9 10 9 8 8 8 6 5 5 5 4 3 3 4 6 11 15 17
Wind_Direction
329 331 334 335 332 330 328 326 323 323 319 314 307 297 291 287 289 284 277 273 272 275 282 287 290 300 293 283 295 221 187 192 197 222 221 228 229 211 220 222 206 213 218 210 215 216 223 224 225 226 231 233 233 232
333 334 336 335 333 332 329 328 327 327 322 315 307 299 295 297 299 294 283 272 273 280 292 291 306 283 291 291 249 184 180 191 194 214 222 212 219 230 222 221 202 208 213 218 216 219 220 225 225 227 237 242 239 234
336 337 337 336 335 331 331 332 328 321 319 314 307 300 295 293 299 293 291 283 279 282 286 302 277 279 294 327 188 187 170 196 186 189 188 209 181 200 211 209 204 210 212 212 213 214 218 226 226 231 236 238 234 230
338 339 337 336 334 334 335 333 324 319 320 319 311 300 295 293 294 289 289 284 281 283 296 286 275 284 319 210 188 184 178 167 180 185 177 183 194 170 203 213 211 212 220 215 216 217 218 222 222 224 230 229 231 230
340 338 337 337 337 336 337 335 329 321 317 318 315 315 316 310 295 284 275 273 276 283 283 279 283 309 257 175 179 148 136 142 163 192 150 161 148 168 202 205 216 219 219 221 218 210 216 223 228 220 223 223 221 222
339 338 339 339 339 339 337 334 330 323 322 316 308 305 304 299 296 279 268 265 268 271 270 231 279 92 147 163 161 157 133 147 146 176 194 182 200 190 208 210 203 207 207 203 206 209 217 220 219 217 214 219 221 221
339 339 341 341 341 339 336 336 333 326 325 322 314 304 294 288 287 286 261 245 252 255 215 187 151 155 161 160 168 155 134 151 143 177 183 202 208 207 207 210 200 200 199 188 193 203 206 216 220 220 215 215 217 222
340 342 343 343 342 339 337 338 336 333 329 329 332 328 315 295 282 271 252 228 227 231 168 157 140 158 160 156 155 146 142 147 139 144 187 175 195 200 207 196 192 198 208 207 202 199 207 204 213 224 224 223 231 236
342 343 344 344 342 339 339 339 339 338 339 341 340 334 359 14 359 211 195 189 195 159 149 152 139 148 150 151 149 146 145 151 161 142 172 195 198 197 204 210 189 192 202 198 198 202 206 208 224 229 228 234 230 230
343 344 344 344 342 340 340 340 342 345 349 2 27 34 39 77 90 100 109 124 129 136 140 136 144 137 148 152 147 149 154 158 166 163 161 178 196 213 211 212 212 214 214 218 208 212 220 225 235 232 226 226 223 226
343 345 344 344 343 341 341 342 347 350 1 1 4 21 35 66 73 85 101 105 118 128 141 137 134 155 147 154 152 157 152 153 160 166 163 149 145 175 193 200 203 190 179 186 188 193 198 201 202 202 211 219 228 235
345 345 344 345 345 342 344 346 353 358 351 3 15 17 28 59 89 85 103 111 118 123 140 139 128 150 156 158 158 160 156 153 157 156 172 160 155 155 157 162 167 174 178 184 188 193 201 207 213 217 221 226 230 235
346 345 345 346 346 344 347 348 358 3 352 9 13 23 52 58 58 83 112 121 126 134 135 136 130 150 158 163 163 163 159 166 154 159 157 159 157 159 162 167 173 174 182 192 197 205 204 208 215 217 219 223 227 231
346 347 346 347 347 345 348 350 4 8 2 12 19 19 34 55 70 82 102 131 132 132 128 134 132 150 157 157 165 169 164 169 169 168 166 165 166 165 170 172 172 183 187 189 192 199 206 213 219 225 230 233 236 238
348 347 347 348 349 345 347 354 354 11 61 20 17 35 45 56 62 94 121 137 127 131 129 135 139 146 156 157 164 159 164 173 175 179 171 171 174 175 176 180 183 187 193 202 210 218 223 227 230 234 238 242 245 249
350 348 348 349 350 349 350 353 352 10 21 4 30 36 46 51 69 120 135 135 130 131 133 139 145 142 154 164 163 166 166 167 168 174 175 178 182 184 189 195 199 203 207 214 223 229 231 234 237 240 244 248 252 255
349 348 349 352 352 352 351 355 346 348 24 24 28 31 57 57 81 128 147 140 133 128 135 145 148 152 144 149 160 162 160 162 169 175 179 180 180 182 187 192 198 203 209 214 220 226 232 235 244 253 261 268 270 271
348 349 351 353 354 352 352 353 354 333 21 27 32 27 52 72 92 126 144 138 130 132 136 142 149 151 153 145 147 145 152 158 161 162 164 168 170 173 181 189 189 186 185 194 212 240 258 270 277 284 287 284 282 282
348 349 352 354 356 355 356 358 6 354 8 17 39 51 53 81 101 130 141 134 124 122 126 130 135 135 150 153 148 145 145 142 143 151 159 166 168 162 148 132 115 99 319 303 299 300 306 310 310 303 298 296 297 295
347 348 352 355 357 357 357 4 11 26 8 18 30 75 67 80 114 133 133 129 125 126 130 125 127 134 134 134 130 132 137 145 149 148 138 131 121 120 123 130 285 304 309 311 313 314 315 312 307 304 302 298 294 292
344 346 348 353 360 359 359 12 19 27 51 35 29 59 83 91 106 105 113 113 111 123 131 131 133 133 132 132 135 138 136 135 133 135 135 140 147 170 281 308 313 317 319 319 319 318 316 311 304 301 299 297 296 295
338 342 346 352 359 3 356 11 35 32 39 69 77 88 117 119 117 102 84 89 121 127 136 134 134 133 130 130 131 133 134 137 136 131 118 58 339 326 325 323 320 317 314 311 309 306 300 300 300 300 299 298 302 305
333 337 341 349 355 1 1 310 300 9 36 38 114 134 128 129 123 121 125 151 161 156 146 139 140 139 137 136 134 131 128 114 82 29 357 341 333 328 322 315 308 303 299 295 295 297 299 295 295 297 301 304 305 307
326 331 336 346 351 355 357 349 271 264 280 317 17 185 164 155 142 134 147 162 170 171 163 154 147 144 144 145 146 143 123 1 339 332 327 324 321 317 310 303 297 293 293 294 296 296 289 289 295 301 303 304 305 306
318 326 332 343 348 350 353 354 334 286 259 265 259 225 198 179 163 150 155 166 174 172 165 163 163 166 169 175 188 220 284 296 302 306 308 308 304 301 299 298 294 294 295 296 289 279 287 294 298 305 306 309 303 297
315 322 330 340 345 347 350 351 341 345 329 285 234 205 196 192 187 177 171 169 170 172 175 178 185 198 206 220 241 259 274 282 292 291 293 291 291 294 296 297 298 291 290 299 290 295 297 299 303 299 303 296 284 220
306 315 322 333 340 343 348 347 340 360 27 101 143 170 181 187 194 196 197 196 200 204 211 216 220 226 233 242 252 265 276 281 278 288 294 296 296 295 299 303 297 295 293 285 290 302 302 297 301 305 298 274 176 157
309 309 315 326 337 339 343 340 314 214 104 107 131 162 176 185 194 198 201 204 211 218 223 227 230 233 242 255 264 276 290 294 296 297 299 297 287 287 288 292 292 287 286 290 299 299 283 294 312 301 271 167 155 153
312 309 316 320 332 334 338 332 286 203 190 177 167 169 183 193 195 199 206 214 221 225 230 234 240 248 257 265 279 282 280 285 289 290 302 323 329 328 324 317 305 294 296 300 291 270 273 307 312 276 176 161 159 160
307 306 314 319 330 332 335 329 240 189 180 185 204 196 189 178 171 169 172 176 183 194 207 215 219 228 236 242 247 248 260 284 310 309 306 310 314 312 305 296 292 300 311 305 283 265 272 292 277 213 171 167 168 168
319 310 319 318 324 328 332 324 184 172 169 166 164 170 182 182 179 174 177 183 190 203 217 216 224 214 198 189 184 186 184 176 159 89 38 20 7 352 339 318 305 305 306 290 265 271 256 261 258 200 180 178 177 178
297 295 296 301 310 321 328 262 174 171 162 149 144 169 182 186 189 190 190 190 202 204 190 171 169 168 177 180 177 176 166 135 82 356 344 341 341 350 358 347 324 305 296 271 266 259 251 253 249 215 197 190 188 188
287 274 266 282 298 316 323 194 179 176 165 156 142 126 127 147 167 176 187 195 190 175 170 167 174 184 189 191 195 206 236 273 294 311 326 333 336 339 341 344 344 332 305 272 265 259 253 249 240 231 220 207 200 199